Location: Ar Ranvel
(48.3000°N, 4.8833°W)
Time: 17:23:50
(UTC+00:00)

Cosmos 1300 - Visible Passes

Search period start: 18 October 2021 00:00
Search period end: 28 October 2021 00:00
Orbit: 509 x 513 km, 82.5° (Epoch: 17 October)

Date Brightness Start Highest point End Pass type
(mag) Time Alt. Az. Time Alt. Az. Time Alt. Az.
18 Oct 4.4 05:41:27 10° N 05:45:00 36° ENE 05:48:31 10° SE visible
18 Oct 4.5 18:01:20 10° ESE 18:02:45 12° E 18:04:09 10° ENE visible
18 Oct 3.1 19:34:05 10° SSW 19:37:50 60° WNW 19:41:37 10° N visible
19 Oct 4.8 05:25:04 10° N 05:28:26 29° ENE 05:31:47 10° SE visible
19 Oct 2.7 19:17:30 10° SSW 19:21:18 76° W 19:25:08 10° N visible
20 Oct 5.2 05:08:43 10° NNE 05:11:51 24° ENE 05:15:00 10° SE visible
20 Oct 2.5 19:01:00 10° S 19:04:47 85° ESE 19:08:38 10° N visible
21 Oct 5.5 04:52:25 10° NNE 04:55:17 20° ENE 04:58:07 10° ESE visible
21 Oct 2.5 18:44:32 10° S 18:48:17 67° E 18:52:05 10° NNE visible
21 Oct 6.1 20:22:59 10° W 20:24:24 12° WNW 20:25:48 10° NW visible
22 Oct 5.7 04:36:11 10° NNE 04:38:40 16° ENE 04:41:10 10° ESE visible
22 Oct 3.0 06:10:55 10° NNW 06:14:33 43° W 06:18:09 10° SSW visible
22 Oct 2.7 18:28:06 10° S 18:31:48 52° E 18:35:31 10° NNE visible
22 Oct 5.9 20:05:41 10° W 20:07:46 14° WNW 20:09:52 10° NNW visible
23 Oct 5.9 04:20:04 10° NE 04:22:04 14° ENE 04:24:03 10° E visible
23 Oct 2.7 05:54:19 10° NNW 05:58:04 55° W 06:01:46 10° S visible
23 Oct 3.0 18:11:44 10° SSE 18:15:19 41° E 18:18:56 10° NNE visible
23 Oct 5.6 19:48:36 10° WSW 19:51:09 17° WNW 19:53:44 10° NNW visible
24 Oct 6.1 04:04:13 10° NE 04:05:26 11° ENE 04:06:39 10° E visible
24 Oct 2.6 05:37:45 10° NNW 05:41:34 70° W 05:45:20 10° S visible
24 Oct 3.3 17:55:25 10° SSE 17:58:50 33° E 18:02:18 10° NNE visible
24 Oct 5.3 19:31:39 10° WSW 19:34:33 21° WNW 19:37:29 10° NNW visible
25 Oct 2.6 05:21:13 10° N 05:25:03 89° W 05:28:51 10° S visible
25 Oct 3.6 17:39:09 10° SSE 17:42:22 27° E 17:45:38 10° NNE visible
25 Oct 5.0 19:14:47 10° SW 19:17:58 25° WNW 19:21:10 10° NNW visible
26 Oct 2.8 05:04:42 10° N 05:08:31 73° ENE 05:12:18 10° SSE visible
26 Oct 4.7 18:57:59 10° SW 19:01:23 30° WNW 19:04:48 10° N visible
27 Oct 3.3 04:48:13 10° N 04:51:59 57° ENE 04:55:44 10° SSE visible
27 Oct 4.5 06:25:31 10° WNW 06:27:05 12° W 06:28:41 10° WSW visible
27 Oct 4.2 18:41:16 10° SW 18:44:49 37° WNW 18:48:24 10° N visible
